Theta_e
335 334 332 332 331 332 331 329 330 333 333 333 333 332 334 334 337 349 346 352 354 355 358 359 359 359 359 358 356 356 356 355 356 355 353 353 354 355 355 355 354 352 350
335 334 330 328 328 331 328 328 328 329 330 331 332 334 334 333 335 338 343 349 352 353 355 357 359 359 360 359 358 357 355 353 354 353 353 353 353 354 355 355 354 353 351
335 336 330 327 328 329 328 327 328 326 328 329 329 330 331 333 333 333 335 338 344 348 348 349 355 358 357 357 356 356 353 351 351 351 350 351 352 352 353 355 354 354 351
333 333 329 328 328 330 325 325 326 325 323 324 324 327 330 331 332 331 335 336 335 345 350 351 354 355 356 356 356 353 351 348 348 347 347 348 350 351 352 352 353 353 352
331 334 331 329 331 325 325 323 325 322 321 322 322 324 325 328 329 330 333 336 337 335 346 351 351 352 352 353 350 349 346 342 341 340 340 341 343 347 350 351 351 352 352
330 331 330 331 327 323 321 323 322 322 322 321 322 320 323 326 328 327 329 337 336 339 344 345 343 342 344 343 343 343 340 336 334 335 336 337 338 341 343 346 351 351 351
329 325 323 323 323 319 318 321 321 320 320 321 318 318 320 322 323 328 330 334 335 338 340 340 337 341 341 342 341 338 335 333 334 335 338 340 340 339 341 342 344 348 350
325 322 322 320 320 320 320 319 320 315 316 319 315 315 311 315 320 325 325 329 332 340 339 343 341 338 338 336 333 333 330 332 334 335 337 340 342 343 342 341 342 344 348
324 322 321 322 319 317 315 316 317 314 312 316 317 313 308 307 315 319 322 327 332 334 334 336 338 335 333 332 332 330 329 329 331 334 334 337 340 344 343 341 341 342 343
320 322 319 318 318 318 316 315 315 315 314 311 315 316 317 316 310 309 318 324 330 330 331 334 334 334 332 331 330 330 327 327 329 330 331 333 335 338 340 342 343 342 342
317 318 318 317 316 316 316 316 315 315 316 314 314 314 314 315 316 313 310 316 324 328 328 329 331 331 332 327 323 325 324 323 324 326 327 328 331 332 333 334 335 337 339
315 316 316 315 316 315 315 315 316 316 316 315 315 315 313 312 311 312 311 314 317 320 321 321 325 323 325 323 324 323 320 319 319 320 320 322 324 326 328 330 331 333 334
311 312 313 314 315 315 315 315 315 315 315 314 313 313 315 315 316 315 314 313 314 319 318 320 321 319 323 320 319 319 318 316 315 315 315 316 318 318 319 321 322 323 325
311 313 312 313 314 314 315 314 313 313 314 312 312 313 313 313 315 315 314 312 310 314 315 317 321 321 320 318 319 316 313 314 314 313 313 314 314 314 315 315 315 316 317
312 311 312 311 312 312 312 311 309 311 312 312 311 311 311 312 314 316 316 314 312 307 310 313 314 319 318 318 316 312 311 314 313 312 312 312 312 311 311 311 311 311 312
312 310 311 310 310 309 308 307 306 309 309 310 310 309 309 310 312 314 316 316 315 312 309 315 314 316 317 317 315 311 311 312 312 311 312 311 310 309 309 309 308 309 309
310 309 308 307 307 306 307 306 306 306 306 307 308 307 308 309 309 312 313 315 314 314 310 311 315 314 313 314 312 311 311 308 308 310 311 311 309 308 307 306 306 306 306
308 308 307 306 306 307 307 307 305 305 305 304 306 305 306 308 308 309 310 311 313 315 312 309 311 310 311 311 310 309 308 308 307 309 309 308 307 307 307 307 306 304 303
307 307 306 306 306 308 307 307 306 306 306 304 305 305 306 307 307 309 310 310 311 313 312 310 308 309 308 308 307 307 307 307 308 310 308 307 306 305 305 306 306 303 302
306 305 307 307 308 307 307 306 307 305 304 305 305 306 305 305 304 304 308 306 309 310 310 310 307 305 306 307 307 304 303 305 305 307 308 307 305 304 303 304 305 304 301
309 310 309 309 309 309 304 305 306 304 304 303 303 303 304 307 306 305 303 302 303 307 308 308 304 304 303 303 302 304 302 303 306 305 303 302 301 300 300 301 302 303 302
311 311 311 310 309 306 301 303 305 304 304 302 301 302 303 304 304 304 303 305 303 301 304 307 305 302 303 303 303 301 301 301 301 305 301 298 300 298 299 299 301 300 301
310 310 310 311 309 307 300 300 305 306 304 303 304 303 303 304 302 302 303 303 304 303 304 303 305 304 303 303 303 301 302 304 302 302 300 295 298 296 298 300 300 299 299
310 311 310 310 310 304 300 299 302 306 305 306 304 303 305 302 300 299 301 301 301 303 302 303 307 306 305 305 305 304 305 305 305 305 303 294 297 294 296 297 300 300 299
311 311 310 310 309 304 298 298 302 306 306 306 302 301 301 300 297 298 303 301 300 301 304 304 303 301 300 301 305 306 306 303 301 301 304 297 296 293 295 296 297 300 299
310 311 310 310 305 307 297 298 300 308 305 305 304 302 299 297 296 296 303 302 298 300 302 304 304 304 305 304 306 308 307 305 301 299 302 299 298 296 291 295 297 298 298
Wind_Speed
5 5 7 9 7 6 8 10 10 9 11 11 13 15 16 16 10 6 5 21 17 18 19 19 20 20 19 18 18 17 16 16 17 17 17 18 20 21 22 23 23 22 22
4 4 7 7 8 7 8 10 10 9 9 11 13 13 14 14 16 12 6 10 10 13 12 16 20 20 19 20 19 17 15 13 13 14 16 17 19 21 22 23 23 23 23
5 2 4 6 6 6 8 9 6 8 9 11 13 13 13 16 15 16 14 10 10 25 29 33 25 17 18 19 17 14 11 10 9 9 9 12 16 19 21 23 24 24 24
5 4 4 5 7 5 8 7 7 5 8 10 11 12 11 12 15 18 17 13 12 8 18 30 25 22 23 18 16 12 8 5 4 5 7 8 10 13 18 22 24 24 24
5 3 4 5 7 6 7 8 7 9 9 10 11 11 12 12 10 14 19 19 17 13 7 20 22 18 14 13 11 8 6 2 2 6 9 11 13 13 15 19 21 23 24
8 6 4 5 7 8 8 9 11 10 10 12 11 13 11 12 10 13 17 15 15 13 5 7 1 5 3 4 3 7 6 3 1 7 11 14 16 17 17 18 18 23 24
7 8 7 9 7 9 11 10 11 12 10 10 10 12 11 12 14 11 12 13 14 5 4 6 5 2 7 12 12 4 5 5 7 10 13 13 18 22 21 21 20 19 22
9 9 9 10 10 9 10 10 7 9 9 9 10 11 11 13 11 10 11 12 15 6 5 3 6 8 7 6 11 9 0 6 7 11 13 14 13 20 23 22 20 20 19
10 12 12 8 9 9 10 11 9 10 11 9 11 8 8 9 13 10 14 12 11 5 1 2 6 10 10 7 14 13 5 4 8 13 14 18 20 13 14 17 17 18 18
14 9 9 9 9 8 10 9 10 9 9 10 9 9 9 10 7 14 8 9 8 6 2 4 1 5 3 4 9 21 7 4 11 14 17 21 21 22 20 6 11 16 17
13 13 14 13 11 9 10 12 11 9 8 8 8 7 9 9 9 6 12 11 8 4 2 4 3 4 9 9 8 15 9 8 11 14 17 16 18 20 23 24 20 16 6
9 11 12 11 10 10 11 10 10 11 9 9 7 7 6 5 6 7 7 11 10 2 6 4 7 9 6 10 16 17 8 11 15 17 16 16 19 20 21 22 23 22 22
8 9 12 12 9 10 10 10 9 9 9 8 7 6 6 6 6 6 6 8 6 1 2 2 2 7 6 6 9 13 16 16 18 17 15 17 18 19 19 20 20 20 21
8 10 10 12 10 10 11 9 7 7 9 5 8 7 7 6 6 7 4 6 5 2 2 3 6 9 8 5 11 14 11 19 17 16 16 18 20 20 19 19 18 18 18
7 11 10 12 10 11 11 10 7 9 8 8 8 7 7 7 6 7 4 3 4 3 2 3 3 5 8 6 10 9 9 15 15 16 18 20 20 19 19 18 18 17 17
8 10 11 10 9 8 8 8 7 9 9 7 6 8 5 6 7 6 6 1 2 3 2 1 2 4 5 8 12 10 10 14 15 16 20 19 18 19 19 19 19 19 18
8 9 8 8 8 8 8 8 9 8 10 9 8 9 8 6 5 5 5 4 3 2 2 2 2 5 5 8 7 7 10 8 7 16 19 19 19 19 19 19 19 20 18
8 7 8 9 9 6 8 7 8 8 8 8 8 8 8 7 7 5 5 6 4 4 2 4 2 3 5 6 6 7 8 7 6 15 19 19 20 20 20 14 15 17 18
9 8 8 8 7 6 6 7 5 9 6 7 8 8 7 8 7 7 6 5 3 1 2 1 3 2 4 4 6 6 6 7 6 16 18 19 20 21 20 20 14 15 16
8 8 8 8 4 6 6 8 8 6 5 5 7 5 5 7 8 8 5 8 6 4 3 2 5 4 3 4 4 4 4 3 4 7 13 15 17 20 21 20 18 13 13
7 7 8 6 2 3 6 7 6 6 6 6 6 7 8 9 14 13 7 8 8 5 3 4 4 5 5 4 5 2 3 2 3 7 8 8 7 7 10 16 16 17 10
6 5 4 3 4 5 7 6 5 4 5 5 5 5 4 10 11 13 14 13 10 6 2 2 3 6 6 6 5 3 2 2 4 3 8 7 6 8 8 8 18 17 13
7 5 5 4 6 7 9 7 4 2 3 3 4 4 5 5 8 6 8 9 9 11 6 2 7 6 8 6 5 4 2 1 6 6 8 7 6 7 6 7 16 16 16
6 5 5 5 5 7 11 10 6 4 2 3 6 6 5 8 11 9 4 4 6 6 6 3 6 6 8 7 5 3 2 9 7 5 6 4 5 5 5 5 17 17 16
6 5 5 6 6 8 12 12 10 4 3 6 6 9 10 9 15 17 2 4 7 8 7 10 14 15 15 13 8 2 3 6 3 3 5 4 3 5 5 6 6 14 13
6 5 5 5 9 7 12 14 13 5 1 3 6 7 15 11 13 16 10 9 7 8 6 10 11 12 11 9 8 5 3 4 4 3 3 2 2 3 3 4 4 5 6
Wind_Direction
357 348 336 318 333 330 2 347 322 312 316 309 316 314 312 310 304 237 280 261 196 198 203 210 197 206 207 215 223 228 233 235 232 230 229 228 227 226 225 224 222 218 212
334 345 321 335 318 7 352 325 321 323 322 324 316 319 316 307 309 296 224 231 220 198 211 245 216 213 215 210 211 221 227 228 233 233 231 233 228 225 225 226 226 223 217
304 347 313 321 328 345 333 304 316 325 326 330 318 318 310 305 304 301 300 264 214 213 211 226 235 206 218 224 221 214 216 231 240 247 248 245 236 231 228 227 225 224 221
348 352 336 321 325 329 315 311 303 310 327 317 312 305 292 296 306 313 303 290 277 259 217 221 211 212 203 210 215 208 206 221 259 281 283 275 265 247 237 232 230 227 223
322 336 297 311 315 326 308 320 335 323 311 310 294 299 306 296 303 304 297 296 302 276 226 210 211 211 199 202 232 216 210 181 310 300 292 287 281 273 258 244 237 230 225
343 323 321 326 340 317 324 317 314 309 299 293 303 303 297 296 304 292 291 288 282 303 85 118 305 100 283 186 198 268 194 182 9 310 303 293 281 269 262 258 249 238 231
349 351 328 334 323 318 305 295 303 308 314 305 308 301 298 296 292 292 278 276 275 240 155 171 191 175 191 191 175 180 354 349 7 329 309 289 272 266 254 247 245 245 237
338 327 325 317 316 315 316 309 325 314 306 303 304 306 308 310 291 326 314 313 306 244 153 135 141 113 91 121 120 118 65 2 18 356 350 342 297 268 257 250 246 244 241
333 326 316 334 330 313 312 314 301 292 301 305 293 293 303 295 319 313 311 304 320 316 347 75 128 139 133 162 139 112 141 2 44 39 20 19 14 334 266 255 247 246 246
311 344 327 322 311 335 316 317 312 304 299 292 289 286 290 301 305 308 317 316 314 345 25 38 112 120 152 167 122 109 94 73 53 48 46 39 34 34 38 5 257 245 243
329 343 343 350 331 319 313 302 301 300 290 281 281 289 304 297 290 287 308 324 332 355 276 129 191 206 178 122 88 75 97 76 68 56 49 48 41 42 49 52 51 45 25
335 335 330 320 313 315 304 304 302 295 291 286 281 285 284 291 299 302 307 310 309 37 79 44 49 29 355 94 91 104 92 83 70 60 56 52 47 39 42 50 50 54 63
324 327 325 318 314 308 310 316 312 306 313 310 304 294 298 293 283 290 287 302 313 355 27 282 265 108 90 18 99 111 90 76 67 65 61 63 54 51 44 48 51 48 54
318 315 320 315 320 335 327 335 325 334 318 326 318 327 316 306 306 296 307 316 315 318 37 45 35 93 101 117 110 83 79 70 70 67 65 59 59 54 48 45 48 49 51
311 321 327 311 337 345 328 350 328 316 324 339 332 329 325 315 314 297 267 293 327 315 36 20 93 96 114 111 93 75 66 74 76 70 67 64 61 58 49 45 46 46 46
327 324 322 329 332 332 332 334 328 326 320 331 322 317 314 325 312 308 300 238 321 315 293 334 72 106 96 97 106 101 86 71 71 71 68 70 63 58 53 51 48 45 41
333 330 327 329 328 325 321 316 316 317 337 333 339 333 330 325 332 331 327 333 294 338 329 51 35 94 82 107 115 139 101 81 65 74 73 72 66 61 56 49 45 41 39
329 316 336 317 297 321 311 327 327 326 321 329 327 322 331 330 318 321 333 328 44 34 323 124 97 85 65 91 81 83 98 104 88 78 74 69 61 55 47 53 55 50 41
311 324 304 294 329 311 307 304 309 307 329 340 327 321 323 329 1 354 354 354 13 47 45 120 120 85 92 95 96 95 116 109 116 102 85 76 67 55 48 41 65 57 45
311 313 295 311 314 320 350 351 3 20 4 344 344 1 33 25 22 356 358 0 356 30 22 111 116 110 96 105 93 102 77 60 107 92 73 67 59 52 46 43 38 43 54
294 304 314 311 326 316 22 3 25 4 358 10 17 19 16 31 35 26 23 13 359 12 350 120 117 116 127 128 121 85 95 127 104 88 67 51 51 51 40 36 30 25 47
309 307 341 350 19 43 357 3 19 358 18 22 13 1 2 32 20 21 22 30 34 0 358 129 110 144 142 118 119 118 132 152 118 92 78 53 35 44 39 36 34 30 30
327 334 358 10 63 34 0 331 32 8 353 354 353 351 10 14 8 356 359 6 26 18 8 309 135 148 139 135 129 148 195 54 92 134 96 55 39 47 28 35 36 34 31
346 357 33 45 43 43 0 358 326 218 141 57 31 353 341 20 358 339 324 351 15 7 5 335 127 122 123 124 133 139 185 107 95 89 113 92 51 54 32 23 34 27 28
353 30 49 54 49 44 7 358 345 156 150 87 72 41 23 15 351 357 171 48 34 16 26 78 93 96 95 85 69 20 17 119 103 72 43 107 151 84 46 28 16 18 9
14 38 52 50 39 56 14 7 11 59 46 117 87 54 35 18 6 2 24 47 38 17 43 86 89 84 81 70 28 29 27 98 96 89 36 111 142 150 72 1 1 351 353